Regional Weather Roundup
Issued by NWS Kansas City/Pleasant Hill, MO

Home | Current Version | Previous Version | Graphics & Text | Print | Product List | Glossary Off
Versions: 1 2 3 4 5 6 7 8 9 10 11 12 13 14 15 16 17 18 19 20 21 22 23 24 25 26 27 28

000
ASUS43 KEAX 291710
RWREAX

WEATHER ROUNDUP FOR EASTERN KANSAS AND NORTHWEST MISSOURI
NATIONAL WEATHER SERVICE KANSAS CITY/PLEASANT HILL MO
1200 PM CDT THU SEP 29 2016

KSZ040-057-103>105-MOZ028-029-037-043-291800-
...KANSAS CITY METROPOLITAN AREA...

CITY           SKY/WX    TMP DP  RH WIND       PRES   REMARKS
K.C. INTL      MOSUNNY   66  49  54 N10       30.38F
K.C. DOWNTOWN  SUNNY     67  51  56 N9        30.37F
LEES SUMMIT    SUNNY     65  50  58 N9        30.37S
OLATHE - IXD   SUNNY     65  50  58 N14       30.38F
OLATHE - OJC   SUNNY     63  49  60 N14       30.37F
LAWRENCE       SUNNY     67  52  58 N12G18    30.39F

$$

MOZ001>008-011>017-020>025-030>033-038>040-044>046-053-054-291800-
...NORTHERN AND CENTRAL MISSOURI...

CITY           SKY/WX    TMP DP  RH WIND       PRES   REMARKS
ST. JOSEPH     MOSUNNY   68  51  54 N9        30.39F
MOSBY          SUNNY     68  46  45 N8        30.36F
WHITEMAN AFB   SUNNY     68  49  52 NW8       30.32F
CLINTON        SUNNY     66  50  55 N10       30.34F
SEDALIA        SUNNY     70  47  43 NW14G21   30.33F
WARSAW         NOT AVBL
CHILLICOTHE      N/A     69  50  50 N9G16     30.36F
KIRKSVILLE     SUNNY     68  52  56 N16       30.32F

$$

MOZ041-047>049-056>058-063>065-088>090-097-291800-
...EASTERN AND SOUTHERN MISSOURI...

CITY           SKY/WX    TMP DP  RH WIND       PRES   REMARKS
ST. LOUIS INTL CLOUDY    61  53  75 NW10      30.22R
SPIRIT OF STL  CLOUDY    61  54  77 N14       30.22S
COLUMBIA       SUNNY     70  52  52 NW16      30.28S
JEFFERSON CITY SUNNY     68  51  54 N8G18     30.27S
ROLLA          SUNNY     66  52  60 N16       30.25S
OSAGE BEACH    SUNNY     67  48  50 N10G17    30.29F
SPRINGFIELD    SUNNY     67  46  47 N13       30.31S
BRANSON        MOSUNNY   64  48  55 NW12G17   30.31S
JOPLIN         SUNNY     65  52  62 N13       30.35F
WEST PLAINS    SUNNY     70  48  45 NW10      30.25F

$$

IAZ060-094-KSZ022-034>040-054-083-096-NEZ052-066-093-291800-
...KANSAS...SOUTHEAST NEBRASKA AND IOWA...

CITY           SKY/WX    TMP DP  RH WIND       PRES   REMARKS
TOPEKA         SUNNY     66  52  60 N9        30.40F
MANHATTAN      MOSUNNY   65  51  60 VRB3      30.42F
EMPORIA        MOSUNNY   65  50  58 N9        30.40F
CHANUTE        SUNNY     67  51  56 NE12G18   30.37F
WICHITA        MOSUNNY   66  49  54 VRB7      30.42F
OMAHA          MOSUNNY   65  52  62 NW10      30.44F
LINCOLN        MOSUNNY   65  52  62 NE6       30.45F
FALLS CITY     SUNNY     66  50  56 NE9       30.40F
LAMONI         SUNNY     65  51  60 N16       30.38F
DES MOINES     MOSUNNY   68  50  52 N13G18    30.39S

$$





USA.gov is the U.S. government's official web portal to all federal, state and local government web resources and services.